Date String (YYYY-MM-DD hh:mm:ss) UTC,Instrument flags,absolute air pressure of the measurement (hPa),sample flow rate (lpm),inlet stack bypass flow (lpm),air temperature of the measurement (°C),ambient temperature measured by the external sensor (°C),aerosol sample conditioner tube jacket temperature (°C),OPC LED temperature (°C),internal box temperature (°C),relative humidity of the measurement (%),span deviation,mass concentration of particles derived from Lorenz-Mie calculation of OPC scattering (μg/m³),mass concentration of particles derived from Lorenz-Mie calculation of OPC scattering (μg/m³),mass concentration of particles derived from Lorenz-Mie calculation of OPC scattering (μg/m³)
DateTimeUTC,F1_M11,P_M11,Q1_M11,Q2_M11,T1_M11,T2_M11,T3_M11,T4_M11,T5_M11,U1_M11,ZSPAN_M11,X0_M11,X2_M11,X1_M11
2024-06-15 17:00:00,SystemResetWarning,0826.6,5.00,000.00,029.2,028.6,000.0,037.5,031.1,028.4,0001.4,0018.92,0007.51,0006.45
2024-06-15 17:01:00,SystemResetWarning,0826.5,4.99,000.00,029.3,028.8,000.0,037.5,031.2,029.7,0001.9,0019.16,0007.48,0006.42
2024-06-15 17:02:00,SystemResetWarning,0826.5,4.99,000.00,029.4,028.9,000.0,037.5,031.2,030.3,0001.9,0019.19,0007.52,0006.43
2024-06-15 17:03:00,SystemResetWarning,0826.5,4.99,000.00,029.5,029.0,000.0,037.6,031.3,030.1,0001.9,0018.68,0007.52,0006.42
2024-06-15 17:04:00,SystemResetWarning,0826.4,5.00,000.00,029.4,028.2,000.0,037.6,030.9,027.0,0002.0,0019.44,0007.56,0006.41
2024-06-15 17:05:00,SystemResetWarning,0826.4,5.00,000.00,029.1,026.4,000.0,037.7,030.0,028.0,0002.2,0020.75,0007.60,0006.39
2024-06-15 17:06:00,SystemResetWarning,0826.5,5.02,000.00,028.9,026.0,000.0,037.6,029.8,028.5,0002.7,0020.70,0007.61,0006.40
2024-06-15 17:07:00,SystemResetWarning,0826.4,5.00,000.00,028.8,026.4,000.0,037.5,030.0,026.3,0003.3,0019.95,0007.55,0006.36
2024-06-15 17:08:00,SystemResetWarning,0826.4,5.00,000.00,028.8,026.9,000.0,037.4,030.2,027.8,0004.2,0018.60,0007.50,0006.29
2024-06-15 17:09:00,SystemResetWarning,0826.4,5.00,000.00,028.9,027.3,000.0,037.4,030.4,029.4,0004.2,0019.15,0007.45,0006.22
2024-06-15 17:10:00,SystemResetWarning,0826.5,5.00,000.00,028.9,027.7,000.0,037.4,030.6,030.5,0004.2,0019.13,0007.44,0006.19
2024-06-15 17:11:00,SystemResetWarning,0826.4,5.00,000.00,029.0,028.0,000.0,037.4,030.7,029.9,0003.8,0018.95,0007.46,0006.20
2024-06-15 17:12:00,SystemResetWarning,0826.5,5.00,000.00,029.1,028.2,000.0,037.4,030.8,029.9,0003.6,0018.67,0007.56,0006.21
2024-06-15 17:13:00,SystemResetWarning,0826.5,5.01,000.00,029.1,028.4,000.0,037.4,030.9,028.8,0003.6,0019.31,0007.56,0006.19
2024-06-15 17:14:00,SystemResetWarning,0826.5,5.00,000.00,029.2,028.6,000.0,037.4,031.0,030.1,0004.0,0019.11,0007.49,0006.15
2024-06-15 17:15:00,SystemResetWarning,0826.5,5.00,000.00,029.3,028.8,000.0,037.4,031.1,031.0,0004.0,0018.92,0007.44,0006.13
2024-06-15 17:16:00,SystemResetWarning,0826.5,5.00,000.00,029.4,028.9,000.0,037.4,031.2,031.1,0003.8,0017.95,0007.44,0006.17
2024-06-15 17:17:00,SystemResetWarning,0826.5,4.97,000.00,029.4,028.6,000.0,037.5,031.1,031.1,0003.3,0017.64,0007.46,0006.20
2024-06-15 17:18:00,SystemResetWarning,0826.4,5.01,000.00,029.2,026.8,000.0,037.6,030.2,030.5,0002.8,0018.23,0007.52,0006.21
2024-06-15 17:19:00,SystemResetWarning,0826.4,5.02,000.00,028.9,025.9,000.0,037.6,029.7,031.2,0000.0,0018.87,0007.55,0006.24
2024-06-15 17:20:00,SystemResetWarning,0826.4,5.00,000.00,028.8,026.3,000.0,037.5,029.9,031.7,0000.6,0018.95,0007.61,0006.29
2024-06-15 17:21:00,SystemResetWarning,0826.4,5.00,000.00,028.8,026.8,000.0,037.4,030.1,032.3,0000.8,0018.54,0007.60,0006.32
2024-06-15 17:22:00,SystemResetWarning,0826.4,5.00,000.00,028.8,027.2,000.0,037.3,030.3,032.2,0002.5,0019.45,0007.63,0006.36
2024-06-15 17:23:00,SystemResetWarning,0826.4,5.00,000.00,028.9,027.5,000.0,037.3,030.5,032.8,0002.7,0021.22,0007.63,0006.41
2024-06-15 17:24:00,SystemResetWarning,0826.4,5.00,000.00,028.9,027.9,000.0,037.3,030.7,030.1,0002.5,0023.05,0007.70,0006.44
2024-06-15 17:25:00,SystemResetWarning,0826.5,5.00,000.00,029.0,028.1,000.0,037.3,030.8,029.5,0002.2,0024.18,0007.72,0006.46
2024-06-15 17:26:00,SystemResetWarning,0826.5,5.00,000.00,029.1,028.4,000.0,037.3,030.9,028.9,0001.8,0023.61,0007.70,0006.44
2024-06-15 17:27:00,SystemResetWarning,0826.5,5.00,000.00,029.2,028.6,000.0,037.3,031.0,029.0,0001.0,0023.73,0007.67,0006.40
2024-06-15 17:28:00,SystemResetWarning,0826.6,5.00,000.00,029.3,028.7,000.0,037.4,031.1,028.9,0001.3,0023.47,0007.66,0006.37
2024-06-15 17:29:00,SystemResetWarning,0826.6,5.00,000.00,029.3,028.9,000.0,037.4,031.2,027.3,0001.1,0023.21,0007.68,0006.36
2024-06-15 17:30:00,SystemResetWarning,0826.6,5.00,000.00,029.4,028.9,000.0,037.4,031.2,024.9,0001.4,0023.77,0007.66,0006.33
2024-06-15 17:31:00,SystemResetWarning,0826.5,4.98,000.00,029.3,027.3,000.0,037.5,030.4,026.3,0001.4,0024.24,0007.60,0006.26
2024-06-15 17:32:00,SystemResetWarning,0826.4,5.01,000.00,028.9,025.8,000.0,037.5,029.7,027.6,0001.8,0025.22,0007.59,0006.21
2024-06-15 17:33:00,SystemResetWarning,0826.4,5.01,000.00,028.7,025.9,000.0,037.5,029.7,028.6,0000.6,0024.34,0007.55,0006.15
2024-06-15 17:34:00,SystemResetWarning,0826.4,4.99,000.00,028.7,026.4,000.0,037.4,029.9,028.2,0000.0,0022.83,0007.43,0006.05
2024-06-15 17:35:00,SystemResetWarning,0826.4,5.00,000.00,028.7,026.8,000.0,037.3,030.1,026.5,0000.0,0020.04,0007.31,0005.98
2024-06-15 17:36:00,SystemResetWarning,0826.4,5.00,000.00,028.8,027.2,000.0,037.3,030.3,026.7,0000.0,0019.17,0007.25,0005.93
2024-06-15 17:37:00,SystemResetWarning,0826.4,5.00,000.00,028.8,027.6,000.0,037.2,030.5,026.4,0000.0,0019.19,0007.24,0005.91
2024-06-15 17:38:00,SystemResetWarning,0826.4,5.00,000.00,028.9,027.9,000.0,037.2,030.6,026.5,0000.0,0019.34,0007.21,0005.88
2024-06-15 17:39:00,SystemResetWarning,0826.4,5.00,000.00,029.0,028.2,000.0,037.2,030.7,026.7,0000.0,0019.65,0007.14,0005.84
2024-06-15 17:40:00,SystemResetWarning,0826.4,4.99,000.00,029.0,028.4,000.0,037.3,030.9,026.0,0000.0,0019.47,0007.02,0005.79
2024-06-15 17:41:00,SystemResetWarning,0826.4,5.00,000.00,029.1,028.6,000.0,037.3,031.0,025.0,0000.0,0019.18,0006.98,0005.77
2024-06-15 17:42:00,SystemResetWarning,0826.4,5.00,000.00,029.2,028.8,000.0,037.3,031.1,025.5,0000.0,0018.69,0006.94,0005.76
2024-06-15 17:43:00,SystemResetWarning,0826.4,4.99,000.00,029.3,028.9,000.0,037.4,031.1,027.1,0000.0,0018.41,0006.94,0005.74
2024-06-15 17:44:00,SystemResetWarning,0826.4,4.98,000.00,029.2,028.0,000.0,037.4,030.7,026.0,0000.0,0019.04,0006.92,0005.71
2024-06-15 17:45:00,SystemResetWarning,0826.3,5.00,000.00,028.9,026.1,000.0,037.5,029.7,025.0,0000.0,0019.71,0006.87,0005.67
2024-06-15 17:46:00,SystemResetWarning,0826.3,5.01,000.00,028.7,025.8,000.0,037.5,029.6,025.4,0000.0,0020.17,0006.82,0005.63
2024-06-15 17:47:00,SystemResetWarning,0826.3,5.01,000.00,028.6,026.3,000.0,037.3,029.8,024.5,0000.0,0020.65,0006.81,0005.59
2024-06-15 17:48:00,SystemResetWarning,0826.3,4.99,000.00,028.6,026.7,000.0,037.2,030.1,024.3,0000.0,0021.48,0006.75,0005.55
2024-06-15 17:49:00,SystemResetWarning,0826.3,5.00,000.00,028.7,027.2,000.0,037.2,030.3,023.7,0000.0,0021.94,0006.73,0005.51
2024-06-15 17:50:00,SystemResetWarning,0826.3,5.00,000.00,028.8,027.5,000.0,037.2,030.5,024.2,0000.0,0021.03,0006.70,0005.47
2024-06-15 17:51:00,SystemResetWarning,0826.3,5.00,000.00,028.8,027.9,000.0,037.2,030.6,023.1,0000.0,0020.87,0006.69,0005.44
2024-06-15 17:52:00,SystemResetWarning,0826.3,4.99,000.00,028.9,028.1,000.0,037.2,030.7,022.7,0000.0,0019.85,0006.66,0005.42
2024-06-15 17:53:00,SystemResetWarning,0826.2,5.01,000.00,029.0,028.4,000.0,037.2,030.8,023.3,0000.0,0019.04,0006.56,0005.38
2024-06-15 17:54:00,SystemResetWarning,0826.2,5.01,000.00,029.1,028.5,000.0,037.2,030.9,023.6,0000.0,0018.48,0006.48,0005.35
2024-06-15 17:55:00,SystemResetWarning,0826.3,5.00,000.00,029.2,028.7,000.0,037.3,031.0,024.3,0000.0,0017.82,0006.40,0005.31
2024-06-15 17:56:00,SystemResetWarning,0826.2,5.00,000.00,029.3,028.9,000.0,037.3,031.1,025.6,0000.0,0017.00,0006.38,0005.29
2024-06-15 17:57:00,SystemResetWarning,0826.3,5.00,000.00,029.3,029.0,000.0,037.3,031.2,025.0,0000.0,0016.70,0006.41,0005.29
2024-06-15 17:58:00,SystemResetWarning,0826.2,4.97,000.00,029.3,027.6,000.0,037.4,030.5,024.7,0000.0,0016.81,0006.37,0005.29
2024-06-15 17:59:00,SystemResetWarning,0826.2,5.01,000.00,028.9,025.8,000.0,037.5,029.7,025.1,0000.0,0016.16,0006.35,0005.29
